WB5MTX Weather Reports


Display with metric or nautical units.
time (UTC)temp
F
wind
direction
speed
MPH
gust
MPH
rain 1hr
in
rain 24hr
in
rain mn
in
humidity
%
barometer
mb
20260504050107 62 0 0.0 4.0 0.00 0.00 0.00 68 1015.5
20260504044600 63 0 0.0 2.0 0.00 0.00 0.00 67 1015.6
20260504043059 63 0 0.0 4.0 0.00 0.00 0.00 65 1015.7
20260504041555 64 0 0.0 4.0 0.00 0.00 0.00 64 1015.9
20260504034557 65 205 0.0 5.0 0.00 0.00 0.00 61 1015.9
20260504033054 65 225 0.0 5.0 0.00 0.00 0.00 60 1015.7
20260504031603 66 0 0.0 6.0 0.00 0.00 0.00 59 1015.8
20260504030055 67 0 0.0 5.0 0.00 0.00 0.00 57 1015.8
20260504024614 67 0 0.0 4.0 0.00 0.00 0.00 56 1015.5
20260504023054 68 0 0.0 5.0 0.00 0.00 0.00 55 1015.4
20260504021559 68 0 0.0 5.0 0.00 0.00 0.00 53 1015.4
20260504020057 69 0 0.0 3.0 0.00 0.00 0.00 51 1015.3
20260504014606 70 167 0.0 4.0 0.00 0.00 0.00 50 1015.5
20260504013055 71 202 0.0 4.0 0.00 0.00 0.00 48 1015.4
20260504011554 72 0 0.0 7.0 0.00 0.00 0.00 46 1015.1
20260504010104 73 207 0.0 8.0 0.00 0.00 0.00 45 1015.0
20260504004553 74 0 0.0 10.0 0.00 0.00 0.00 44 1015.2
20260504003056 75 0 1.0 7.0 0.00 0.00 0.00 43 1015.2
20260504001553 77 231 1.0 5.0 0.00 0.00 0.00 39 1015.1
20260504000137 78 0 0.0 12.0 0.00 0.00 0.00 36 1015.4
20260503234601 79 215 1.0 9.0 0.00 0.00 0.00 35 1015.5
20260503233100 79 201 2.0 9.0 0.00 0.00 0.00 35 1015.4
20260503231556 80 221 1.0 10.0 0.00 0.00 0.00 35 1015.6
20260503224558 81 0 2.0 11.0 0.00 0.00 0.00 34 1015.8
20260503223055 81 195 2.0 9.0 0.00 0.00 0.00 34 1015.8
20260503221557 80 169 2.0 10.0 0.00 0.00 0.00 36 1015.9
20260503220054 81 202 1.0 8.0 0.00 0.00 0.00 30 1016.1
20260503214555 82 231 1.0 13.0 0.00 0.00 0.00 33 1016.3
20260503213100 82 0 1.0 7.0 0.00 0.00 0.00 31 1016.5
20260503211613 81 207 2.0 15.0 0.00 0.00 0.00 32 1016.7
20260503210053 81 219 4.0 16.0 0.00 0.00 0.00 30 1017.0
20260503204555 82 257 2.0 8.0 0.00 0.00 0.00 32 1017.3
20260503203108 82 179 1.0 14.0 0.00 0.00 0.00 30 1017.6
20260503201558 82 114 2.0 9.0 0.00 0.00 0.00 31 1018.1
20260503200057 82 221 2.0 10.0 0.00 0.00 0.00 31 1018.1
20260503194557 82 233 1.0 12.0 0.00 0.00 0.00 33 1018.4
20260503193059 82 205 0.0 9.0 0.00 0.00 0.00 32 1018.7
20260503191559 82 0 1.0 10.0 0.00 0.00 0.00 35 1018.8
20260503190055 81 207 0.0 12.0 0.00 0.00 0.00 34 1019.2
20260503184553 81 196 2.0 10.0 0.00 0.00 0.00 36 1019.2
20260503183054 80 228 1.0 9.0 0.00 0.00 0.00 35 1019.4
20260503181602 80 0 1.0 9.0 0.00 0.00 0.00 35 1019.9
20260503180112 79 214 3.0 15.0 0.00 0.00 0.00 34 1020.1
20260503173100 78 231 2.0 9.0 0.00 0.00 0.00 39 1020.6
20260503171554 78 294 2.0 10.0 0.00 0.00 0.00 42 1020.8
20260503081553 57 0 0.0 0.0 0.00 0.00 0.00 69 1019.6